Location: Unspecified
(0.0000°N, 0.0000°E)
Time: 16:02:03
(UTC+01:00)

Palapa 6 Rocket - Visible Passes

Search period start: 26 November 2014 00:00
Search period end: 06 December 2014 00:00
Orbit: 486 x 1232 km, 22.8° (Epoch: 25 November)

Date Brightness Start Highest point End Pass type
(mag) Time Alt. Az. Time Alt. Az. Time Alt. Az.
26 Nov 6.6 03:56:24 12° NE 03:56:24 12° NE 03:57:35 10° NE visible
26 Nov 5.7 05:38:26 14° NNW 05:44:06 28° NNE 05:50:37 10° ENE visible
26 Nov 2.9 20:16:19 10° WSW 20:20:19 69° NNW 20:20:54 60° NNE visible
27 Nov 6.6 03:44:51 12° NE 03:44:51 12° NE 03:45:35 10° NE visible
27 Nov 5.6 05:26:53 18° NNW 05:31:41 32° NNE 05:38:34 10° E visible
27 Nov 3.2 20:04:22 10° W 20:08:12 54° NNW 20:09:27 38° NNE visible
28 Nov 6.7 03:33:18 11° NE 03:33:18 11° NE 03:33:33 10° NE visible
28 Nov 5.4 05:15:20 23° NNW 05:19:15 35° NNE 05:26:25 10° E visible
28 Nov 3.5 19:52:27 10° W 19:56:05 42° NNW 19:58:00 25° NNE visible
29 Nov 5.2 05:03:48 30° NNW 05:06:47 39° NNE 05:14:12 10° E visible
29 Nov 3.8 19:40:33 10° W 19:43:59 33° NNW 19:46:33 17° NE visible
30 Nov 5.0 04:52:16 37° N 04:54:17 44° NNE 05:01:54 10° E visible
30 Nov 4.2 19:28:42 10° W 19:31:52 26° NNW 19:35:06 11° NE visible
01 Dec 4.8 04:40:43 46° N 04:41:46 49° NNE 04:49:33 10° E visible
01 Dec 4.5 19:16:54 10° WNW 19:19:45 21° NNW 19:22:42 10° NNE visible
02 Dec 4.6 04:29:09 54° NNE 04:29:14 54° NNE 04:37:07 10° E visible
02 Dec 4.8 06:11:14 10° WNW 06:19:03 63° SSW 06:27:02 10° SE visible
03 Dec 4.6 04:17:35 57° NE 04:17:35 57° NE 04:24:38 10° ESE visible
03 Dec 4.9 05:59:37 13° W 06:06:30 56° SSW 06:14:26 10° SE visible
04 Dec 4.9 04:05:59 52° E 04:05:59 52° E 04:12:05 10° ESE visible
04 Dec 5.0 05:48:01 16° W 05:53:57 50° SSW 06:01:47 10° SE visible
05 Dec 5.2 03:54:22 43° ESE 03:54:22 43° ESE 03:59:29 10° ESE visible
05 Dec 5.1 05:36:24 19° W 05:41:26 44° SSW 05:49:04 10° SE visible
